Sylacauga Online Weather Center

Moon Phase Calendar



Online Cameras

 


      

Current Conditions in Sylacauga
8/5/2021 10:39:14 AM

81°F
Feels Like 85
Clouds
Humidity
71%
Pressure
30.12"
Wind
4.6 mph (SE)
Dew Point
71°F
UV Index
8/10 (Very High)
Visibility
6 mi

Hourly Forecast

Date & Time Thu, Aug 5
10:00 AM
Thu, Aug 5
11:00 AM
Thu, Aug 5
12:00 PM
Thu, Aug 5
1:00 PM
Thu, Aug 5
2:00 PM
Thu, Aug 5
3:00 PM
Thu, Aug 5
4:00 PM
Thu, Aug 5
5:00 PM
Thu, Aug 5
6:00 PM
Thu, Aug 5
7:00 PM
Thu, Aug 5
8:00 PM
Thu, Aug 5
9:00 PM
Thu, Aug 5
10:00 PM
Thu, Aug 5
11:00 PM
Fri, Aug 6
12:00 AM
Fri, Aug 6
1:00 AM
Fri, Aug 6
2:00 AM
Fri, Aug 6
3:00 AM
Fri, Aug 6
4:00 AM
Fri, Aug 6
5:00 AM
Fri, Aug 6
6:00 AM
Fri, Aug 6
7:00 AM
Fri, Aug 6
8:00 AM
Fri, Aug 6
9:00 AM
Fri, Aug 6
10:00 AM
Fri, Aug 6
11:00 AM
Fri, Aug 6
12:00 PM
Fri, Aug 6
1:00 PM
Fri, Aug 6
2:00 PM
Fri, Aug 6
3:00 PM
Fri, Aug 6
4:00 PM
Fri, Aug 6
5:00 PM
Fri, Aug 6
6:00 PM
Fri, Aug 6
7:00 PM
Fri, Aug 6
8:00 PM
Fri, Aug 6
9:00 PM
Fri, Aug 6
10:00 PM
Fri, Aug 6
11:00 PM
Sat, Aug 7
12:00 AM
Sat, Aug 7
1:00 AM
Sat, Aug 7
2:00 AM
Sat, Aug 7
3:00 AM
Sat, Aug 7
4:00 AM
Sat, Aug 7
5:00 AM
Sat, Aug 7
6:00 AM
Sat, Aug 7
7:00 AM
Sat, Aug 7
8:00 AM
Sat, Aug 7
9:00 AM
Condition
Clouds

Clouds

Clouds

Clouds

Clouds

Clouds

Clouds

Clouds

Clouds

Clouds

Clouds

Clouds

Clouds

Clouds

Clouds

Clouds

Clouds

Clouds

Clouds

Clouds

Clouds

Clouds

Clouds

Clouds

Clouds

Clouds

Clouds

Clouds

Clouds

Clouds

Clouds

Clouds

Clouds

Rain

Rain

Rain

Clouds

Clouds

Clouds

Clouds

Clear

Clear

Clear

Clear

Clear

Clear

Clear

Clear
Temperature 81°F81°F82°F83°F86°F87°F85°F80°F77°F76°F75°F75°F75°F74°F72°F71°F70°F70°F69°F68°F68°F70°F74°F78°F82°F86°F88°F90°F92°F92°F91°F88°F82°F78°F75°F74°F73°F72°F72°F71°F70°F70°F69°F69°F68°F71°F74°F79°F
Feels Like 84°F85°F85°F87°F88°F89°F87°F80°F78°F77°F76°F75°F75°F74°F72°F71°F70°F70°F69°F69°F68°F70°F74°F79°F84°F87°F89°F91°F92°F91°F91°F90°F85°F80°F76°F75°F74°F73°F73°F72°F71°F71°F70°F70°F69°F72°F75°F79°F
Cloudiness 41%40%44%48%32%50%68%76%81%84%74%83%88%91%93%94%100%100%100%100%100%100%100%100%100%100%100%100%100%95%91%91%93%94%100%100%100%100%100%99%6%4%3%2%2%2%1%1%
Visibility 6 mi6 mi6 mi6 mi6 mi6 mi6 mi6 mi6 mi6 mi6 mi6 mi6 mi6 mi6 mi6 mi6 mi6 mi6 mi6 mi6 mi6 mi6 mi6 mi6 mi6 mi6 mi6 mi6 mi6 mi6 mi6 mi6 mi6 mi6 mi6 mi6 mi6 mi6 mi6 mi6 mi6 mi6 mi6 mi6 mi6 mi6 mi6 mi
Precipitation 0%9%20%24%17%13%9%8%4%0%0%0%0%0%0%0%0%0%0%0%0%0%0%0%0%0%0%1%0%0%4%4%4%38%44%45%57%67%78%85%7%4%0%0%5%23%4%0%
Humidity 69%71%67%61%53%47%50%63%69%71%70%69%69%70%72%74%75%76%80%83%86%83%74%65%57%49%43%38%35%34%36%47%65%75%82%84%87%89%89%90%92%92%93%94%94%91%84%72%
Dew Point 70°F71°F70°F68°F67°F64°F64°F66°F66°F66°F64°F64°F64°F63°F63°F62°F62°F62°F62°F63°F63°F64°F65°F65°F65°F64°F63°F62°F60°F60°F60°F65°F69°F69°F69°F68°F68°F68°F68°F68°F67°F67°F67°F67°F66°F68°F69°F69°F
Pressure 30.12"30.12"30.12"30.09"30.06"30.03"30"30.03"30.03"30.03"30.06"30.06"30.06"30.06"30.06"30.06"30.06"30.06"30.03"30.03"30.06"30.09"30.12"30.12"30.12"30.09"30.06"30.03"30"30"29.97"29.97"30"30"30"30"30"30.03"30.03"30.03"30.03"30"30"30"30.03"30.03"30.06"30.06"
Wind Speed 5.8 mph5.4 mph5 mph5.3 mph4.1 mph2.4 mph1.5 mph2.9 mph3.8 mph4 mph3.9 mph3.4 mph2.8 mph3.1 mph3.3 mph1.5 mph0.6 mph2.9 mph3.7 mph3.2 mph2.8 mph2.5 mph2.1 mph3.6 mph4.7 mph4.8 mph4.5 mph4.5 mph4.1 mph3.9 mph3.5 mph6.6 mph4.6 mph2.2 mph2.4 mph3.3 mph3.7 mph2.8 mph1.3 mph1.5 mph1.1 mph1.3 mph1.4 mph2 mph1.5 mph1.8 mph1.4 mph0.9 mph
Wind
Direction
105°
ESE
104°
ESE
96°
E
86°
E
81°
E
77°
ENE
36°
NE
16°
NNE
359°
N
17°
NNE
27°
NNE
36°
NE
41°
NE
56°
NE
90°
E
122°
ESE
140°
SE
115°
ESE
112°
ESE
112°
ESE
104°
ESE
87°
E
83°
E
95°
E
101°
E
101°
E
87°
E
74°
ENE
60°
ENE
43°
NE
51°
NE
103°
ESE
106°
ESE
29°
NNE
29°
NNE
72°
ENE
84°
E
102°
ESE
92°
E
66°
ENE
68°
ENE
68°
ENE
45°
NE
60°
ENE
45°
NE
39°
NE
29°
NNE
338°
NNW

Daily Forecast

Date High Low Precip. Humidity
Today
Aug 5

Clouds
87 °F
66 °F
24%
67%
Friday
Aug 6

Rain
92 °F
68 °F
67%
43%
Saturday
Aug 7

Rain
90 °F
69 °F
85%
52%
Sunday
Aug 8

Clouds
94 °F
72 °F
5%
35%
Monday
Aug 9

Rain
91 °F
73 °F
64%
47%
Tuesday
Aug 10

Rain
94 °F
73 °F
86%
43%
Wednesday
Aug 11

Rain
93 °F
72 °F
36%
48%
Thursday
Aug 12

Rain
96 °F
73 °F
76%
42%
Friday
Aug 13

Rain
97 °F
73 °F
75%
41%
Saturday
Aug 14

Rain
96 °F
72 °F
90%
41%
Sunday
Aug 15

Rain
94 °F
71 °F
86%
43%
Monday
Aug 16

Rain
97 °F
72 °F
88%
42%
Tuesday
Aug 17

Rain
95 °F
73 °F
56%
37%
Wednesday
Aug 18

Clouds
95 °F
73 °F
0%
39%
Thursday
Aug 19

Clear
95 °F
74 °F
0%
40%
Friday
Aug 20

Clouds
97 °F
75 °F
1%
37%

Temperature 8-14 Day Outlook



Precipitation 8-14 Day Outlook




Quick Links
Sylacauga Online News
Sylacauga Online Photos
Sylacauga Online Videos




About Us
Contact Us
Site Map
Search Site
Advertise With Us
   
www.SylacaugaOnline.com
THE SYLACAUGA ONLINE WEBSITE

Copyright 2021, Tourism Regions
Privacy    |    Legal